STARLINK-32705, 62479

Orbit data source: Space-Track

STARLINK-32705, 62479 is a payload satellite owned by SpaceX/Seattle (US) in LEO that was launched on Tue, 31 Dec 2024 UTC via an FALCON 9 launch vehicle from the Air Force Eastern Test Range (AFETR). Payload-class satellites include a variety of spacecraft equipped with specific instruments for various scientific and technological missions. These include communications satellites like Starlink; space stations such as the ISS; scientific satellites like the Hubble; Earth observation satellites from companies like Planet Labs, Umbra, and HawkEye 360; GPS; miniature CubeSats for education and research; and military/defense satellites.

Loading next visibility...
Identifier
62479, 2024-254T
Orbit
LEO
Country
Flag of USUS
Related business
Manufacturer
SpaceX/Seattle
Mission
Operational Commercial Communications
Bus & Motor
STARLINK V2M, Unknown motor
Mass
730 kg wet, ~700 kg dry
Launch date (UTC)
2024-12-31 (2 years ago)
Launch vehicle
FALCON 9
Launch site
Air Force Eastern Test Range (AFETR)
Object type
Payload
Rocket body
Debris
Shape & HBR
Box + 2 Pan, 17.7 m
Radar Cross Section
33.884 m², Large (>1 m²)

Expand to show TLE details & history
Last TLE update: 1 day ago

TLE from 1 day ago
0 STARLINK-32705
1 62479U 24254T   26257.41502045  .00005775  00000-0  21923-3 0  9992
2 62479  43.0070  22.9723 0002824 289.9971  70.0577 15.27579133 96442
Epoch: 2026-09-14T09:57Z
TLE epoch observation values (Epoch: 2026-09-14T09:57:37.766Z)
Latitude
-0°
Longitude
-119.83071°
Altitude
482.168 km
Speed
7.627 km/s
True Right ascension
01h 31m 53s
True Declination
0° 00' 00"
Sunlit
Object was in full shadow at epoch
Visualization orbit readout
Latitude
Unknown
Longitude
Unknown
Altitude
Unknown
Speed
Unknown
Apparent Right ascension
Unknown
Apparent Declination
Unknown
Sunlit
N/A
Visualization observer readout
Local Sidereal Time
03:44:56
Azimuth
Unknown
Elevation
Unknown
Doppler factor
Unknown
Orbital elements
Apogee altitude
486.934 km
Perigee altitude
483.058 km
Semi-major axis
6,863.133 km
Eccentricity
0.00028
Inclination
43.007°
RAAN
22.9723°
Arg. of periapsis
289.9971°
True anomaly
70.08812°
Mean anomaly
70.0577°
Eccentric anomaly
70.07291°
Mean motion
3.81733 °/min
Orbital period
94.31 mins
BSTAR
0.00021923
Loading maneuver chart data...
Computing Atmospheric mass density...
Loading historical data...
Loading historical data...
Loading historical data...
Loading historical data...
Loading historical data...
Loading historical data...
Loading historical data...

Documentation

Showing up to 5 results
|